{"data":{"norad_id":47734,"epoch":"2026-05-25T04:38:54.011616Z","epoch_age_seconds":68368,"freshness":"FRESH","line1":"1 47734U 21017N   26145.19368069  .00004053  00000+0  14226-3 0  9995","line2":"2 47734  53.1570 208.0807 0001665  79.5486 280.5703 15.31706451289580","mean_motion":15.31706451,"eccentricity":0.0001665,"inclination_deg":53.157,"raan_deg":208.0807,"arg_perigee_deg":79.5486,"mean_anomaly_deg":280.5703,"bstar":0.00014226,"rev_number":28958,"period_min":94.01279201115,"perigee_km":469.58043037992,"apogee_km":471.86110001573,"semimajor_km":6848.8577651978,"source":"CELESTRAK","updated_at":"2026-05-25T13:38:16.565534Z"}}